Wind_Speed
20 21 22 23 23 24 25 26 27 27 27 26 27 27 27 27 27 26 26 26 27 28 28 29 30 31 31 32 33 34 34 34 34 34 34 34 35 35
20 21 22 23 24 25 26 27 27 27 26 26 26 27 26 26 26 27 28 27 28 29 29 30 31 31 32 33 33 34 34 35 35 35 35 35 35 36
21 21 22 23 24 24 25 25 25 25 25 25 26 26 26 26 26 27 27 28 28 29 30 31 31 32 32 33 33 34 34 35 35 36 36 36 36 36
20 21 22 23 24 24 24 25 25 25 24 25 26 27 26 26 26 26 27 27 28 29 29 30 31 32 32 32 33 34 34 35 35 36 37 37 36 37
20 22 23 23 23 23 24 24 24 24 24 24 25 26 26 27 26 27 27 27 28 29 29 30 31 32 33 32 33 33 34 35 35 36 37 37 37 37
21 22 23 23 23 24 24 25 24 24 24 24 25 25 26 26 26 27 27 28 28 29 30 30 30 30 32 33 33 34 34 35 36 36 36 37 37 38
20 22 22 23 23 24 24 24 24 24 24 25 25 25 26 27 27 28 28 28 29 29 30 30 30 30 31 31 32 33 34 35 35 36 36 37 38 38
21 22 22 23 24 25 25 25 25 25 25 25 25 25 25 26 27 27 27 27 28 29 29 28 30 30 31 32 32 32 33 34 35 36 37 37 38 38
21 22 22 23 24 25 24 25 25 25 25 25 25 25 25 25 25 26 26 26 26 26 27 27 28 29 30 32 32 32 33 34 35 36 37 38 38 38
20 20 21 22 23 23 24 24 24 24 24 24 24 24 24 25 25 25 26 26 25 26 27 28 29 29 30 31 32 32 33 34 35 36 37 38 38 38
18 20 21 21 22 23 23 23 24 24 24 23 23 23 24 24 24 24 25 26 26 26 27 28 29 30 30 30 30 30 31 32 33 34 35 36 37 38
19 20 20 21 21 22 23 23 23 23 23 22 22 22 22 22 23 24 24 25 25 26 27 27 27 28 28 29 30 30 30 31 32 33 34 35 36 37
20 20 21 21 22 22 23 22 22 22 22 21 21 21 21 21 22 23 23 23 24 24 25 25 25 26 27 27 28 28 29 30 30 31 31 32 33 34
20 20 21 22 22 22 22 21 21 21 21 20 20 21 21 21 22 22 23 23 23 24 24 25 25 25 25 26 26 27 27 28 29 29 29 29 30 31
21 21 21 22 22 22 22 21 21 20 19 19 19 20 20 21 21 22 22 22 22 23 23 23 23 24 24 25 25 26 26 27 28 28 28 29 29 30
21 21 22 22 22 22 21 21 20 19 19 19 19 19 19 19 20 21 20 21 21 21 21 21 21 22 23 24 25 26 26 26 27 27 28 29 29 30
21 22 22 22 22 21 20 20 19 19 19 19 19 18 19 19 19 19 18 19 19 20 19 19 20 20 21 22 23 24 24 25 25 26 26 27 27 28
21 21 22 22 21 20 19 20 19 18 18 18 18 18 18 18 17 17 17 17 17 17 17 17 18 19 20 20 21 22 22 23 24 24 24 25 25 25
21 21 21 21 21 19 19 18 18 18 17 17 17 17 17 16 16 15 16 16 16 17 17 17 17 17 17 18 20 21 21 21 22 23 23 23 23 24
20 21 21 21 20 19 18 17 17 17 17 16 16 16 15 15 14 15 15 15 15 16 15 16 16 16 17 17 18 18 19 20 21 21 22 22 22 22
20 20 20 20 20 19 17 16 16 16 16 16 16 16 15 15 14 15 15 15 15 15 14 14 15 15 16 16 16 16 17 18 18 19 20 21 21 21
21 20 19 19 19 18 17 16 16 16 16 16 16 16 15 15 15 15 15 15 14 14 14 14 14 14 15 15 16 16 16 16 16 17 18 18 19 19
20 20 19 19 19 19 18 17 17 16 16 16 16 15 15 15 15 14 14 14 13 13 13 12 12 13 14 14 14 14 15 15 16 16 16 17 18 19
Wind_Direction
278 278 277 278 277 276 275 273 271 270 271 270 270 269 267 265 264 264 262 262 259 257 256 253 252 249 248 248 246 245 245 244 245 246 245 245 244 244
279 279 281 281 279 278 277 277 275 273 271 269 270 269 268 267 266 265 262 261 260 257 256 254 252 250 249 249 248 247 246 245 245 245 246 246 245 245
280 280 282 284 284 282 281 280 277 274 271 269 268 268 268 266 265 264 262 262 261 259 258 257 254 251 251 249 248 248 247 246 246 246 246 247 246 246
282 282 284 285 286 286 285 285 281 277 274 271 269 267 266 266 263 264 263 262 261 260 259 258 255 253 253 251 249 248 248 248 248 248 248 248 247 247
285 286 288 288 287 288 288 287 283 279 275 272 270 269 267 266 264 264 263 264 263 261 259 257 255 253 253 253 251 251 251 251 250 250 249 248 248 247
287 288 289 288 288 288 289 288 285 282 277 273 270 267 267 267 265 265 263 264 264 262 260 257 256 255 254 253 252 252 253 253 252 250 249 249 249 248
289 289 289 288 287 288 290 289 286 284 281 276 272 268 268 268 268 266 265 264 264 262 260 257 256 255 254 254 254 255 254 253 253 252 251 251 250 249
290 290 291 291 289 289 289 288 287 286 283 279 276 274 275 272 268 267 266 264 264 262 262 260 258 257 256 256 256 256 255 254 253 253 253 252 252 251
293 293 293 292 292 290 289 289 289 287 284 281 279 277 279 277 273 269 265 265 265 264 263 262 260 259 258 258 257 257 256 255 254 253 253 252 252 251
299 298 295 294 296 294 293 294 292 290 286 282 283 281 279 278 276 273 268 266 267 267 266 266 264 262 261 260 259 259 258 257 256 255 253 252 252 252
304 303 302 300 299 298 297 296 293 292 289 285 284 281 279 279 276 275 273 271 270 270 268 268 266 264 263 262 261 260 259 257 255 255 255 254 254 253
311 311 309 306 302 300 299 297 295 294 292 287 285 282 281 281 279 278 278 276 274 272 270 269 268 265 263 262 261 260 260 258 258 257 256 257 256 255
314 316 315 311 306 304 303 301 297 295 294 292 287 285 283 281 280 279 279 278 277 274 271 270 269 267 265 263 261 261 261 260 259 258 257 257 256 256
316 316 315 316 312 309 307 303 300 298 297 295 290 287 286 284 282 281 281 280 279 276 274 272 270 268 266 264 262 260 260 261 260 258 256 257 257 257
317 316 317 317 315 312 309 307 304 301 299 297 293 291 289 286 285 284 282 281 280 279 277 275 272 269 266 264 263 263 262 262 260 259 259 259 259 259
319 318 318 317 315 313 310 309 306 304 302 301 297 294 292 291 289 287 284 282 281 280 277 275 274 272 268 266 266 264 264 263 263 263 262 262 262 261
320 320 320 320 318 314 311 310 309 306 304 302 301 298 297 297 293 289 286 284 283 281 280 278 276 275 272 270 269 268 265 264 263 263 263 264 263 262
323 323 324 323 322 318 315 313 312 310 309 307 305 303 300 298 296 292 290 289 287 285 283 281 278 275 273 270 270 270 268 266 265 263 265 266 266 264
327 327 326 326 325 322 319 317 316 314 312 310 308 306 305 303 302 300 298 294 292 289 286 283 282 281 277 273 271 270 269 268 267 266 266 267 266 264
328 330 330 329 328 326 323 320 318 318 317 314 311 310 310 309 306 304 302 299 297 293 290 286 283 282 280 277 273 271 270 271 269 268 266 266 265 265
328 330 332 333 333 333 328 323 321 320 319 317 312 311 310 309 307 305 304 303 302 298 293 290 287 285 283 279 276 276 276 275 272 270 268 268 268 267
328 329 330 332 332 332 329 325 323 321 318 317 316 314 311 308 306 307 305 303 302 301 298 294 289 287 285 284 282 281 279 276 274 272 272 272 271 268
328 329 329 330 329 331 329 325 325 325 323 322 320 316 312 309 308 309 310 307 303 300 301 299 295 291 288 287 287 285 282 279 277 276 275 275 273 271
Height
5737 5736 5735 5733 5732 5730 5729 5727 5727 5726 5725 5724 5723 5722 5721 5721 5721 5720 5720 5720 5720 5720 5721 5722 5723 5724 5726 5728 5730 5732 5735 5737 5740 5743 5745 5748 5751 5754
5730 5729 5728 5726 5724 5722 5720 5719 5717 5717 5716 5715 5714 5713 5713 5712 5712 5712 5712 5712 5711 5712 5712 5713 5714 5715 5717 5719 5721 5723 5725 5728 5730 5733 5736 5739 5741 5744
5724 5722 5721 5719 5717 5714 5712 5710 5709 5707 5707 5706 5705 5704 5704 5704 5703 5703 5703 5703 5703 5703 5704 5704 5705 5706 5708 5710 5712 5714 5716 5719 5721 5724 5726 5729 5731 5734
5718 5716 5714 5712 5710 5707 5704 5702 5700 5699 5698 5698 5697 5696 5695 5695 5694 5694 5694 5694 5694 5694 5695 5695 5696 5697 5699 5700 5702 5705 5707 5709 5711 5714 5716 5719 5721 5724
5712 5710 5708 5705 5703 5700 5697 5695 5693 5691 5690 5689 5688 5687 5686 5686 5685 5685 5685 5685 5685 5685 5686 5686 5687 5688 5689 5691 5693 5695 5697 5700 5702 5704 5706 5708 5711 5713
5705 5703 5701 5699 5696 5693 5691 5688 5686 5684 5682 5681 5680 5679 5678 5677 5676 5676 5676 5676 5676 5676 5676 5677 5677 5679 5680 5682 5684 5686 5687 5689 5691 5693 5695 5698 5700 5703
5699 5697 5694 5692 5689 5686 5683 5681 5678 5676 5674 5672 5671 5670 5669 5668 5668 5667 5667 5667 5667 5667 5667 5668 5668 5670 5671 5672 5674 5675 5677 5679 5681 5683 5685 5687 5690 5692
5693 5690 5688 5685 5682 5679 5677 5674 5671 5668 5666 5665 5663 5662 5661 5660 5659 5658 5657 5657 5658 5658 5657 5658 5659 5660 5661 5663 5664 5665 5667 5669 5671 5673 5674 5677 5679 5681
5687 5684 5681 5678 5676 5673 5670 5667 5663 5660 5659 5657 5655 5654 5653 5651 5651 5649 5649 5648 5649 5649 5648 5649 5650 5651 5652 5653 5654 5656 5657 5659 5660 5662 5664 5666 5668 5670
5680 5678 5675 5672 5669 5666 5663 5660 5656 5654 5651 5649 5648 5646 5645 5644 5642 5641 5640 5640 5640 5640 5640 5640 5641 5641 5642 5643 5644 5645 5647 5648 5650 5651 5653 5655 5656 5658
5675 5672 5669 5666 5663 5660 5657 5653 5650 5647 5645 5642 5640 5639 5637 5636 5635 5634 5633 5632 5632 5632 5631 5631 5632 5632 5633 5634 5635 5636 5637 5638 5639 5641 5642 5644 5645 5647
5670 5666 5663 5660 5656 5653 5650 5647 5644 5641 5638 5636 5633 5632 5630 5628 5627 5626 5625 5624 5624 5624 5623 5623 5623 5623 5624 5625 5625 5626 5627 5628 5629 5631 5632 5633 5634 5636
5665 5661 5658 5654 5650 5647 5643 5640 5637 5634 5631 5629 5626 5625 5623 5621 5620 5619 5618 5617 5616 5616 5616 5615 5615 5614 5615 5616 5616 5617 5618 5619 5620 5621 5622 5623 5624 5625
5660 5657 5653 5649 5645 5641 5637 5634 5630 5627 5625 5622 5620 5618 5617 5615 5614 5612 5611 5610 5609 5608 5607 5607 5607 5606 5606 5607 5608 5608 5609 5609 5611 5612 5612 5613 5614 5615
5655 5651 5647 5643 5639 5635 5631 5628 5624 5621 5619 5616 5614 5612 5611 5609 5607 5605 5604 5603 5601 5601 5600 5599 5599 5598 5598 5599 5599 5600 5600 5601 5601 5602 5603 5604 5605 5606
5650 5646 5642 5638 5634 5629 5626 5622 5618 5615 5613 5610 5608 5606 5604 5602 5600 5599 5597 5596 5595 5594 5592 5592 5591 5591 5591 5591 5591 5592 5592 5592 5593 5593 5594 5595 5595 5596
5645 5641 5637 5633 5628 5624 5620 5616 5613 5610 5607 5605 5602 5600 5598 5596 5594 5592 5591 5590 5588 5587 5586 5585 5584 5583 5583 5583 5583 5583 5584 5584 5584 5585 5585 5586 5586 5587
5640 5636 5632 5628 5623 5619 5615 5611 5608 5605 5602 5600 5597 5595 5593 5591 5589 5587 5585 5584 5583 5581 5580 5579 5578 5577 5577 5576 5576 5575 5575 5576 5576 5576 5577 5577 5578 5579
5636 5632 5628 5623 5619 5614 5610 5607 5603 5601 5598 5595 5593 5590 5588 5586 5584 5582 5580 5579 5577 5576 5574 5573 5572 5571 5570 5570 5569 5569 5568 5568 5568 5569 5569 5570 5570 5571
5632 5628 5623 5619 5615 5610 5606 5603 5600 5597 5594 5591 5588 5586 5583 5581 5579 5577 5575 5574 5572 5570 5569 5567 5566 5565 5564 5564 5563 5563 5561 5561 5561 5561 5562 5562 5563 5563
5628 5624 5620 5615 5611 5607 5603 5600 5596 5593 5591 5588 5585 5582 5579 5577 5575 5573 5571 5569 5567 5565 5564 5562 5561 5560 5558 5557 5557 5557 5556 5555 5554 5554 5554 5555 5556 5556
5624 5620 5616 5612 5608 5604 5600 5597 5593 5590 5587 5584 5580 5578 5575 5573 5571 5569 5566 5564 5563 5561 5559 5558 5556 5555 5553 5553 5552 5551 5550 5549 5548 5548 5548 5549 5549 5549
5620 5616 5612 5608 5605 5601 5597 5593 5590 5586 5583 5580 5577 5574 5571 5569 5566 5564 5562 5560 5558 5557 5555 5553 5552 5550 5549 5547 5546 5545 5545 5544 5543 5543 5543 5542 5542 5542